Weather Roundup
Issued by NWS

Home | Current Version | Previous Version | Text Only | Print | Product List | Glossary On
Versions: 1 2 3 4 5 6 7 8 9 10 11 12 13 14 15 16 17 18 19 20 21 22 23 24 25 26 27 28 29 30 31 32 33 34 35 36 37 38 39 40 41 42 43 44 45 46 47 48 49 50
000
NZUS93 KARX 310059
HRRWXR

CURRENT HOURLY OBSERVATIONS ACROSS
MUCH OF THE UPPER MISSISSIPPI VALLEY
NATIONAL WEATHER SERVICE LA CROSSE WI
800 PM CDT SAT AUG 30 2014


...SOUTHEAST MINNESOTA...


CITY           SKY/WX    TMP DP  RH WIND       PRES   REMARKS
ROCHESTER      PTCLDY    68  63  84 E6        29.88R
ROCHESTER/MAYO MOCLDY    71  61  70 NE5       29.87S
WINONA         CLEAR     70  63  78 CALM      29.87R
AUSTIN         PTCLDY    72  64  78 CALM      29.87R
ALBERT LEA     CLEAR     70  66  88 CALM      29.87R
DODGE CENTER   CLOUDY    70  66  88 CALM      29.88R
PRESTON        CLEAR     69  67  95 CALM      29.88R
OWATONNA       PTCLDY    72  64  78 W3        29.87R
FARIBAULT      MOCLDY    73  64  73 CALM      29.88R
$$

...ELSEWHERE IN MINNESOTA...


CITY           SKY/WX    TMP DP  RH WIND       PRES   REMARKS
MINNEAPOLIS    MOCLDY    71  61  70 E7        29.86R
INTNL FALLS    CLEAR     60  52  74 SE6       29.87R
DULUTH         CLOUDY    61  58  90 E8        29.90R
RED WING       CLEAR     68  63  83 NE5       29.86R
REDWOOD FALLS  CLEAR     67  62  84 CALM      29.86R
MANKATO        CLEAR     70  61  73 W3        29.86R
WORTHINGTON    CLEAR     70  61  73 S3        29.89R
FAIRMONT       CLEAR     66  63  88 E3        29.87R
$$

...SOUTHWEST WISCONSIN...


CITY           SKY/WX    TMP DP  RH WIND       PRES   REMARKS
LA CROSSE      PTCLDY    72  65  78 N7        29.86R
PRAIRIE DU CHI NOT AVBL
BOSCOBEL       CLEAR     72  67  84 CALM      29.86R
LONE ROCK      NOT AVBL
PLATTEVILLE    PTCLDY    73  69  86 CALM      29.88R
FORT MC COY    CLOUDY    70  63  79 N6        29.88R
CAMP DOUGLAS   MOCLDY    68  68 100 NW7       29.87R
VIROQUA        FAIR      69  69  98 CALM      29.88R
WIS DELLS      PTCLDY    73  65  75 CALM      29.86R
$$

...ELSEWHERE IN WISCONSIN...


CITY           SKY/WX    TMP DP  RH WIND       PRES   REMARKS
MILWAUKEE      PTCLDY    74  68  81 SW5       29.85R
MADISON        PTCLDY    75  65  70 CALM      29.86R
GREEN BAY      MOCLDY    69  66  90 NW6       29.84R
EAU CLAIRE     NOT AVBL
BLACK RVR FLS  CLOUDY    67  62  83 N5        29.87R
MEDFORD        CLOUDY    62  58  89 N3        29.89R
WAUSAU         CLOUDY    64  60  87 NW7       29.87R
WIS RAPIDS     CLOUDY    69  62  78 NW9       29.88R
MARSHFIELD     CLOUDY    66  61  84 N9        29.88R
RICE LAKE      CLOUDY    64  61  88 CALM      29.90R
$$

...NORTHEAST IOWA...


CITY           SKY/WX    TMP DP  RH WIND       PRES   REMARKS
WATERLOO       CLEAR     72  65  78 W6        29.87R
DUBUQUE        CLEAR     70  65  84 W5        29.89R
DECORAH        MOCLDY    72  68  88 CALM      29.85S
MASON CITY     PTCLDY    69  65  86 S5        29.89R
CHARLES CITY   PTCLDY    72  66  83 NW3       29.87S
OELWEIN        CLEAR     72  66  83 W5        29.88R
$$

...ELSEWHERE IN IOWA...


CITY           SKY/WX    TMP DP  RH WIND       PRES   REMARKS
DES MOINES     PTCLDY    75  66  73 NW5       29.87S
IOWA CITY      CLEAR     75  68  78 SW3       29.89R
FORT DODGE     CLEAR     68  63  83 SW3       29.89R
MARSHALLTOWN   CLEAR     73  67  81 CALM      29.87S
CEDAR RAPIDS   PTCLDY    71  69  93 S3        29.88R
$$

...NORTHERN ILLINOIS...


CITY           SKY/WX    TMP DP  RH WIND       PRES   REMARKS
CHICAGO-OHARE  PTCLDY    77  63  61 W7        29.87R
DUPAGE         PTCLDY    75  66  73 SW6       29.88R
CHICAGO-MIDWAY MOCLDY    80  67  64 W7        29.87R
MOLINE         CLEAR     74  69  85 W3        29.87R
ROCKFORD       CLEAR     73  65  75 SW3       29.89R
STERLING       CLEAR     73  64  73 W5        29.88R
PEORIA         PTCLDY    79  70  74 S6        29.89R
$$

NOTE: "FAIR" INDICATES FEW OR NO CLOUDS BELOW 12,000 FEET WITH NO
SIGNIFICANT WEATHER AND/OR OBSTRUCTIONS TO VISIBILITY. WIND
SPEEDS ARE IN MILES-PER-HOUR.



USA.gov is the U.S. government's official web portal to all federal, state and local government web resources and services.